Flag for Germany Weather past 2 weeks in Emmendingen, Baden-Württemberg, Germany

Now
54 °F

Light rain. Broken clouds.


Feels Like: 48 °F
Forecast: 48 / 53 °F
Wind: 23 mph from Southwest

Location: Lahr - CAN-AFB

Current Time: Mar 29, 2015 at 7:23:44 PM

Latest Report: Mar 29, 2015 at 5:50 PM


Visibility: N/A

Pressure: 29.71 "Hg

Humidity: 77%

Dew point: 46 °F

Location of EmmendingenLocation

Historic Weather in Emmendingen — Graph

°F

Emmendingen temperature yesterday

Maximum temperature yesterday: 52 °F (at 10:20 AM)
Minimum temperature yesterday: 46 °F (at 8:50 AM)
Average temperature yesterday: 49 °F

Past Weeks' High & Low Weather Summary

 TemperatureHumidityPressure
High64 °F (Mar 18, 3:50 PM)100% (Mar 17, 8:20 AM)30.27 "Hg (Mar 17, 8:20 AM)
Low32 °F (Mar 16, 7:20 AM)34% (Mar 20, 3:50 PM)29.65 "Hg (Mar 25, 7:50 AM)
Average51 °F62%30.03 "Hg
* Reported Mar 14 4:20 PM — Mar 29 5:50 PM, Emmendingen, Weather by CustomWeather, © 2015

Note: Actual official high and low records may vary slightly from our data, if they occured in-between our weather recording intervals... More about our weather records

Advertising

Emmendingen weather history for previous 24 hours

 ConditionsComfort  
Time TempWeatherWind HumidityBarometerVisibility
5:50 PM
Sun, Mar 29
54 °FLight rain. Broken clouds.23 mph77%29.71 "HgN/A
5:20 PM52 °FLight rain. Broken clouds.29 mph77%29.71 "HgN/A
4:50 PM52 °FLight rain. Broken clouds.26 mph77%29.74 "HgN/A
4:20 PM52 °FRain. Broken clouds.29 mph77%29.77 "HgN/A
3:50 PM52 °FRain. Broken clouds.26 mph77%29.77 "HgN/A
3:20 PM52 °FRain. Broken clouds.26 mph82%29.80 "HgN/A
2:50 PM52 °FLight rain. Broken clouds.24 mph82%29.80 "HgN/A
2:20 PM52 °FRain. Partly sunny.21 mph82%29.83 "HgN/A
1:50 PM52 °FRain. Partly sunny.18 mph82%29.83 "HgN/A
12:20 PM54 °FLight rain. Partly sunny.15 mph72%29.86 "HgN/A
11:50 AM54 °FLight rain. Partly sunny.16 mph72%29.89 "HgN/A
11:20 AM52 °FPartly sunny.14 mph77%29.89 "HgN/A
10:50 AM54 °FPartly sunny.15 mph72%29.89 "HgN/A
10:20 AM52 °FPartly sunny.16 mph77%29.89 "HgN/A
9:50 AM52 °FPartly sunny.16 mph77%29.92 "HgN/A
9:20 AM52 °FPartly sunny.17 mph77%29.92 "HgN/A
8:50 AM52 °FPartly sunny.17 mph77%29.92 "HgN/A
Weather by CustomWeather, © 2015

See weather overviewHow to use our weather pages